Weather History for YCIN - October, 2012

Change the Weather History Date:

Sunday, October 28, 2012

  Actual Average Record
Temperature  
Mean Temperature 88 °F -  
Max Temperature 102 °F - - ()
Min Temperature 75 °F - - ()
Cooling Degree Days 24    
Growing Degree Days 38 (Base 50)    
Moisture  
Dew Point 69 °F    
Average Humidity 58    
Maximum Humidity 94    
Minimum Humidity 24    
Precipitation  
Precipitation 0.00 in - - ()
Sea Level Pressure  
Sea Level Pressure 29.79 in    
Wind  
Wind Speed 5 mph ()    
Max Wind Speed 13 mph    
Max Gust Speed -    
T = Trace of Precipitation, MM = Missing Value Source: Averaged Metar Reports

Daily Weather History Graph

Daily Weather History Graph

Search for Another Location

Airport or City:

Trip Planner

Search our weather history database for the weather conditions in past years. The results will help you decide how hot, cold, wet, or windy it might be!

Date:

Astronomy

Oct. 28, 2012 Rise Set
Actual Time 5:07 AM AWST 5:49 PM AWST
Civil Twilight 4:45 AM AWST 6:11 PM AWST
Nautical Twilight 4:19 AM AWST 6:38 PM AWST
Astronomical Twilight 3:52 AM AWST 7:04 PM AWST
Moon 4:35 PM AWST 3:47 AM AWST
Length of Visible Light 13h 26m
Length of Day
12h 41m
Waxing Gibbous, 97% of the Moon is Illuminated
Oct 28
Waxing Gibbous
Oct 30
Full
Nov 7
Last Quarter
Nov 14
New
Nov 20
First Quarter

Hourly Weather History & Observations

Time (AWST) Temp. Heat Index Dew Point Humidity Pressure Visibility Wind Dir Wind Speed Gust Speed Precip Events Conditions
12:00 AM 82 °F - 71 °F 61% 29.77 in - North 5.8 mph - -  
12:00 AM 82.4 °F 87.2 °F 71.6 °F 70% 29.77 in - North 5.8 mph - N/A   Unknown
1:00 AM 78.8 °F - 69.8 °F 74% 29.77 in - NNW 4.6 mph - N/A   Unknown
2:00 AM 77.0 °F - 69.8 °F 78% 29.77 in - NW 2.3 mph - N/A   Unknown
3:00 AM 77 °F - 71 °F 77% 29.77 in - North 4.6 mph - -  
3:00 AM 77.0 °F - 71.6 °F 83% 29.77 in - North 4.6 mph - N/A   Unknown
4:00 AM 75.2 °F - 69.8 °F 83% 29.77 in - NNE 4.6 mph - N/A   Unknown
5:00 AM 77.0 °F - 73.4 °F 89% 29.80 in - NE 5.8 mph - N/A   Unknown
6:00 AM 78 °F - 75 °F 89% 29.82 in - NNE 4.6 mph - -  
6:00 AM 77.0 °F - 75.2 °F 94% 29.83 in - NNE 4.6 mph - N/A   Unknown
7:00 AM 82.4 °F 92.4 °F 78.8 °F 89% 29.83 in - North 6.9 mph - N/A   Unknown
8:00 AM 87.8 °F 99.7 °F 77.0 °F 70% 29.86 in - North 6.9 mph - N/A   Unknown
9:00 AM 91 °F - 76 °F 53% 29.84 in - NNE 6.9 mph - -  
9:00 AM 91.4 °F 102.5 °F 75.2 °F 59% 29.83 in - NNE 6.9 mph - N/A   Unknown
10:00 AM 93.2 °F 102.4 °F 73.4 °F 52% 29.83 in - North 6.9 mph - N/A   Unknown
11:00 AM 96.8 °F 105.1 °F 71.6 °F 44% 29.80 in - North 8.1 mph - N/A   Unknown
12:00 PM 97 °F - 75 °F 40% 29.77 in - North 10.4 mph - -  
12:00 PM 96.8 °F 109.6 °F 75.2 °F 50% 29.77 in - North 10.4 mph - N/A   Unknown
1:00 PM 100.4 °F 104.9 °F 66.2 °F 33% 29.74 in - North 10.4 mph - N/A   Unknown
2:00 PM 98.6 °F 100.0 °F 62.6 °F 30% 29.74 in - North 9.2 mph - N/A   Unknown
3:00 PM 96 °F - 63 °F 24% 29.71 in - North 9.2 mph - -  
3:00 PM 96.8 °F 98.0 °F 62.6 °F 32% 29.71 in - North 9.2 mph - N/A   Unknown
4:00 PM 98.6 °F 100.0 °F 62.6 °F 30% 29.71 in - North 8.1 mph - N/A   Unknown
5:00 PM 95.0 °F 95.2 °F 60.8 °F 32% 29.74 in - NNW 6.9 mph - N/A   Unknown
6:00 PM 89 °F - 65 °F 35% 29.74 in - NW 3.5 mph - -  
6:00 PM 89.6 °F 91.1 °F 64.4 °F 43% 29.74 in - NW 3.5 mph - N/A   Unknown
7:00 PM 86.0 °F 88.2 °F 66.2 °F 51% 29.80 in - ESE 4.6 mph - N/A   Unknown
8:00 PM 82.4 °F 83.9 °F 64.4 °F 54% 29.83 in - Calm Calm - N/A   Unknown
9:00 PM 82 °F - 64 °F 44% 29.83 in - ENE 5.8 mph - -  
9:00 PM 82.4 °F 83.9 °F 64.4 °F 54% 29.83 in - ENE 5.8 mph - N/A   Unknown
10:00 PM 78.8 °F - 66.2 °F 65% 29.83 in - Calm Calm - N/A   Unknown
11:00 PM 80.6 °F 82.3 °F 64.4 °F 58% 29.83 in - South 12.7 mph - N/A   Unknown